Date,TemperatureHighF,TemperatureAvgF,TemperatureLowF,DewpointHighF,DewpointAvgF,DewpointLowF,HumidityHigh,HumidityAvg,HumidityLow,PressureMaxIn,PressureMinIn,WindSpeedMaxMPH,WindSpeedAvgMPH,GustSpeedMaxMPH,PrecipitationSumIn
2013-3-1,34,32,30,35,32,29,100,98,93,29.63,29.47,20,7,20,0.04
2013-3-2,36,34,32,36,33,31,100,96,90,29.62,29.53,24,10,24,0.06
2013-3-3,42,37,34,38,36,35,100,95,76,29.60,29.43,14,5,14,0.03
2013-3-4,36,34,32,35,33,31,100,97,91,29.65,29.39,17,6,18,0.13
2013-3-5,43,37,34,37,35,33,99,91,76,30.16,29.60,21,6,21,0.02
2013-3-6,37,35,33,35,30,26,96,84,71,30.31,30.12,28,9,28,0.01
2013-3-7,37,34,32,28,27,24,79,72,62,30.27,30.06,32,11,32,0.00
2013-3-8,45,36,30,28,25,23,80,66,42,30.23,30.03,28,10,30,0.00
2013-3-9,40,33,28,28,25,23,83,72,54,30.41,30.16,24,7,24,0.00
2013-3-10,34,31,28,31,26,23,88,81,72,30.46,30.28,13,4,16,0.00
2013-3-11,43,39,34,39,35,31,97,86,76,30.36,30.19,18,5,18,0.00
2013-3-12,49,45,40,47,42,38,100,92,81,30.24,29.85,31,10,34,0.27
2013-3-13,49,45,37,49,44,31,100,97,77,29.90,29.60,40,8,40,1.36
2013-3-14,43,36,27,31,27,18,97,70,43,29.73,29.58,19,5,19,0.00
2013-3-15,32,24,19,21,14,11,85,67,40,29.75,29.58,28,10,28,0.00
2013-3-18,32,28,18,11,4,0,49,32,25,30.42,30.27,25,6,25,0.00
2013-3-19,30,27,25,28,21,8,100,79,37,30.32,29.62,32,9,33,0.00
2013-3-20,33,27,19,29,22,16,99,82,67,29.71,29.50,30,7,30,0.00
2013-3-21,38,32,27,29,23,16,93,69,42,29.81,29.56,18,4,18,0.00
2013-3-22,40,32,24,29,20,14,93,64,36,29.61,29.51,20,6,20,0.00
2013-3-23,39,33,26,26,21,18,72,61,45,29.60,29.38,28,9,28,0.00
2013-3-24,42,37,32,31,26,24,75,64,50,29.78,29.52,24,8,24,0.00
2013-3-25,41,36,29,32,29,26,95,76,58,29.78,29.58,18,4,18,0.00
2013-3-26,45,37,30,32,27,23,79,66,46,29.70,29.49,26,8,26,0.00
2013-3-27,39,36,34,38,34,28,97,90,70,29.86,29.62,20,7,21,0.14
2013-3-28,47,40,35,36,33,29,90,74,52,29.96,29.81,17,6,17,0.00
2013-3-29,53,45,39,38,34,31,86,66,47,30.01,29.90,13,4,15,0.00
2013-3-30,52,43,35,33,27,16,81,55,24,30.09,29.95,15,4,15,0.00
2013-3-31,51,42,35,38,22,14,91,47,25,30.16,29.91,22,5,22,0.00